Погода Максимкин Яр

Погода Максимкин Яр : погода сейчас, прогноз погоды и архив. Всё, что Вы хотите узнать о погоде Максимкин Яр!

Поиск расширенной информации на нашем сайте:

Другие новости

Новости СМИ2

Главная страница сайта

Новости сайта

02.10.2013

Напоминаем, что на нашем новом сайте вы можете получить высокодетализированные прогнозы погоды по пунктам России, СНГ и мира (включающие важные для авиации метеовеличины, такие как направление и скорость ветра, видимость, явления погоды, количество и форма облачности, нижняя и верхняя граница облачности), а также ознакомиться с разнообразными материалами по авиационной метеорологии и подборкой полезных ссылок на эту тему.

Сайт Метеоцентр.Азия посвящён разработке технологий оптимизации авиаметеорологического обслуживания, включая проектирование и перспективное создание нескольких автоматизированных авиаметеорологических систем:
- система выпуска высокодетальных прогностических карт явлений погоды для нижнего воздушного пространства по России и ближнему зарубежью;
- система верификации прогнозов TAF (выпускаемых синоптиками официальных АМСГ РФ и ближнего зарубежья) и AUTOTAF (выпускаемых сайтом Метеоцентр.Азия) - выявление ошибок, онлайн-сопоставление с фактической погодой METAR, автоматическое внесение коррективов в прогнозы при резком отклонении фактической погоды от прогноза, подсчёт оправдываемости прогнозов по элементам и в целом;
- система обработки, анализа и отображения авиаметеорологической информации для применения провайдерами метеорологической информации.

Рекомендуем: Clash of Clans коды и прохождения Clash.

Погода Максимкин Яр - сегодня

Время (UTC), дата Ветер
(°,м/с) 
Видим.   Явления Облачность Т
(°С)
Тd
(°С)
f(%) Тe
(°С)
Pmin
(гПа)
dP
(гПа)
Po
(мм)
O2
(г/м3)
Тmin Tmax R s Состояние
почвы
21 27.03.17 210 (ЮЗ) 20000 м    10/10 600 м 
[Sc]
+1.7 -1.6 79 1017.2  1.6  753  302           
00 28.03.17 210 (ЮЗ) 20000 м    10/10 600 м кучево-дожд. 
[Cb cap]
+0.8 -2.9 76 -1  1019.4  2.1  755  304  +0.8      72  равномерный
мокрый или
старый снег
100% 
03 28.03.17 200 (Ю) 20000 м    10/10 600 м кучево-дожд. 
[Cb cap]
+1 -4.6 66 1020.4  755  304  +0.4         
06 28.03.17 190 (Ю) 20000 м    10/10 600 м 
[Sc]
+3.2 -3.5 61 +2  1020  -0.3  755  301           
09 28.03.17 190 (Ю) 20000 м    10/10 600 м 
[Sc]
+4.5 -1.6 65 +3  1019  -0.9  755  299           
12 28.03.17 150 (ЮВ) 20000 м    10/10 600 м 
[Sc]
+4.5 -0.8 68 +4  1018  -1  754  299    +5.4       
15 28.03.17 160 (Ю) 3{10}  4000 м  слаб. ливневой дождь  10/10 600 м кучево-дожд. 
[Cb cap]
+2.6 +0.8 88 +1  1016.7  -1.4  753  300           
18 28.03.17 180 (Ю) 4-10{10}  20000 м  {ливн. осадки}  10/10 600 м кучево-дожд. 
[Cb cap]
+3.3 +0.8 84 +1  1015.2  -1.5  752  299           
21 28.03.17 180 (Ю) 3{10}  20000 м    10/10 600 м 
[Sc]
+3.4 -0.1 78 +2  1014.4  -0.7  751  299           
00 29.03.17 160 (Ю) 20000 м    10/10 600 м 
[Sc]
+3.2 -0.9 74 +3  1013.6  -0.8  751  299  +2.4    0.4  70  равномерный
мокрый или
старый снег
100% 
03 29.03.17 160 (Ю) 20000 м    10/3 600 м средняя 
[Sc|As op]
+5 -1.4 63 +4  1012.3  -1.2  750  297           
06 29.03.17 170 (Ю) 4{12}  20000 м    10/0 средняя, верхняя 
[Ac trans|Cs]
+8.5 -2 48 +7  1009.5  -2.6  748  292           
09 29.03.17 180 (Ю) 5-10{12}  20000 м    10/0 средняя, верхняя 
[Ac trans|Ci sp]
+9.9 -2.2 43 +9  1007.3  -2.1  746  290           
12 29.03.17 170 (Ю) 3{12}  20000 м    10/0 средняя 
[As trans]
+8.7 -2.2 46 +8  1006  -1.4  745  291    +9.9       
15 29.03.17 210 (ЮЗ) 2{13}  20000 м  в посл. час ливневой дождь  10/10 600 м кучево-дожд. 
[Cb cap]
+5.9 +1.7 74 +6  1007.6  1.5  746  294           
18 29.03.17 230 (ЮЗ) 4{11}  20000 м  {ливн. осадки}  10/10 600 м кучево-дожд. 
[Cb cap]
+3.4 -0.2 77 +1  1011.4  3.6  749  298           
21 29.03.17 220 (ЮЗ) 20000 м  {ливн. осадки}  10/10 600 м кучево-дожд. 
[Cb cap]
+2.3 -2.4 71 +2  1013.5  750  300           
00 30.03.17 тихо ()   20000 м  {ливн. осадки}  10/8 600 м средняя 
[Sc|Ac und]
+0.1 -3.1 79 1014.6  751  303  +0.1    0.0  52  равномерный
мокрый или
старый снег
100% 
03 30.03.17 150 (ЮВ) 20000 м    9/8 600 м верхняя 
[Sc|Ci fib]
+3.6 -4.1 57 +2  1014  -0.5  751  299  -0.3         
06 30.03.17 140 (ЮВ) 20000 м    8/6 600 м верхняя 
[Cu Sc|Ci fib]
+6.2 -3.3 51 +5  1011.2  -2.6  749  295           
09 30.03.17 120 (ЮВ) 20000 м    10/10 600 м 
[Sc]
+6.2 -0.2 64 +5  1007.6  -3.6  746  294           
12 30.03.17 120 (ЮВ) 10 км  слаб. ливневой дождь  10/10 300 м кучево-дожд. 
[Cb cap]
+4.6 +3.4 92 +3  1002.8  -4.7  743  294    +6.7     
15 30.03.17 140 (ЮВ) 4-10{10}  4000 м  слаб. ливневой дождь  10/10 600 м кучево-дожд. 
[Cb cap]
+6.4 +4.4 87 +5  997.7  -5  739  290           
18 30.03.17 190 (Ю) 3{10}  4000 м  слаб. ливневой дождь  10/10 600 м кучево-дожд. 
[Cb cap]
+5.5 +4.1 91 +4  995.7  -2  737  291           
21 30.03.17 210 (ЮЗ) 5-11{15}  4000 м  слаб. ливневой снег  9/9 600 м кучево-дожд. 
[Cb cap]
+1.3 -1.3 83 -1  1000.4  4.5  741  297           
Время (UTC), дата Ветер
(°,м/с) 
Видим.   Явления Облачность Т
(°С)
Тd
(°С)
f(%) Тe
(°С)
Pmin
(гПа)
dP
(гПа)
Po
(мм)
O2
(г/м3)
Тmin Tmax R s Состояние
почвы

Для получения пояснительной информации подведите курсор к названию столбца.

ПОГОДА Максимкин Яр - архив

Всё, что Вы хотите узнать о погоде Максимкин Яр - удобно и подробно!

Выберите нужную дату (начиная с 1 января 2015* года) и нажмите кнопку "Найти".
Будут отображены архивные сводки погоды по пункту Максимкин Яр, начиная с указанной даты.


Отображать данные в формате CSV (для использования в таблицах Excel)


Внимание! Наш архив погоды предназначен исключительно для личного некоммерческого использования в познавательных целях. Если Вам необходимы официальные справки о состоянии погоды (для производственных, юридических, коммерческих и т.п. целей), обращайтесь в органы Росгидромета.

*Примечание: данная дата относится к архиву по метеостанциям СССР (Россия, СНГ, Балтия).
Архив по метеостанциям Зарубежной Европы и Азии (кроме Китая) хранится 10 дней, по другим регионам земного шара (Китай, Африка, Америка, Австралия, Океания) - 1 день.

Максимкин Яр - район местоположения метеостанции


Название, широта, долгота, высота метеостанции:
Максимкин Яр 58.6°ш. 86.7°д. 105 м над ур. моря [Российская Федерация]

Дополнительная информация

В oтличие oт бoльшинства пoгoдных сайтoв мы публикуем пoдрoбную метеoинфoрмацию в детальнoм прoфессиoнальнoм фoрмате.

Характеристики температуры и влажнoсти вoздуха измеряются на высoте 2 м в тени вдали oт зданий и деревьев.
Скoрoсть ветра измеряется на высoте 10 м (на урoвне рoста челoвека скoрoсть ветра ниже в 1.5-2 раза). Если метеoстанция нахoдится в гoрoде или в лесу, тo скoрoсть ветра занижена на 2-4 м/с пo сравнению с oткрытым местoм. Скoрoсть ветра над акватoриями крупных рек и oзёр, а также на вершинах хoлмoв на 2-5 м/с выше, чем в oбычных услoвиях.
Атмoсфернoе давление в разных тoчках местнoсти мoжет значительнo oтличаться oт давления на метеoстанции, в зависимoсти oт услoвий рельефа (при пoдъёме на 10 м давление пoнижается примернo на 1 мм рт.ст.).